Weather Roundup
Issued by NWS Springfield, MO

Home | Current Version | Previous Version | Text Only | Print | Product List | Glossary On
Versions: 1 2 3 4 5 6 7 8 9 10 11 12 13 14 15 16 17 18 19 20 21 22 23 24 25 26 27 28 29 30 31 32 33 34 35 36 37 38 39 40 41 42 43 44 45 46 47 48 49 50
000
NZUS99 KSGF 172007
HRRSGF

HOURLY WEATHER
NATIONAL WEATHER SERVICE SPRINGFIELD MO
200 PM CST SUN DEC 17 2017

......SGF CWA......

CITY           SKY/WX    TMP DP  RH WIND       PRES   REMARKS
SPRINGFIELD    CLOUDY    47  44  90 W8        30.01S FOG
JOPLIN         CLOUDY    46  44  93 W8        30.03S
WEST PLAINS    CLOUDY    45  44  97 SW3       30.04F FOG
ROLLA          CLOUDY    47  42  83 S8        30.00F
OSAGE BEACH    CLOUDY    47  44  90 SW6       30.01F
BRANSON        FOG       45  45 100 CALM      30.04F VSB 1/2

......SURROUNDING SGF CWA......

CITY           SKY/WX    TMP DP  RH WIND       PRES   REMARKS
CHANUTE        CLOUDY    46  44  93 S8        30.01F
PARSONS        CLOUDY    46  45  96 S7        30.02F FOG
COFFEYVILLE    LGT RAIN  46  45  96 SW6       30.02F FOG
EMPORIA        CLOUDY    53  41  63 VRB3      29.96F
GROVE OK       CLOUDY    46  46 100 CALM      30.04S FOG
ROGERS AR      CLOUDY    46  44  93 SW7       30.03S
SILOAM SPRINGS CLOUDY    46  45  96 SW3       30.03F FOG
HARRISON AR    CLOUDY    47  47 100 CALM      30.02F FOG
NEAR YELLVILLE CLOUDY    49  45  86 CALM      30.05S

......KANSAS AND MISSOURI......

CITY           SKY/WX    TMP DP  RH WIND       PRES   REMARKS
KANSAS CTY INT CLOUDY    46  43  89 W5        29.96F
DOWNTOWN KC    CLOUDY    48  42  80 W6        29.97S
COLUMBIA       CLOUDY    45  44  97 S7        29.99F FOG
SEDALIA        CLOUDY    46  46 100 SW8       30.00F FOG
ST JOSEPH      CLOUDY    48  45  89 NW6       29.96F
ST LOUIS       PTSUNNY   54  37  52 SW9       30.00F
SPIRIT OF STL  PTSUNNY   54  40  59 SW8       30.00F
KIRKSVILLE     CLOUDY    45  45 100 SW10      29.97S
WICHITA        CLOUDY    47  40  76 S9        29.98S
TOPEKA         PTSUNNY   50  44  80 SW3       29.97R
OLATHE         CLOUDY    46  43  89 SW7       29.98R

......TENNESSEE......

CITY           SKY/WX    TMP DP  RH WIND       PRES   REMARKS
MEMPHIS        CLOUDY    48  45  89 SW6       30.09R
NASHVILLE      CLOUDY    46  41  82 S3        30.11S

......ARKANSAS.......

CITY           SKY/WX    TMP DP  RH WIND       PRES   REMARKS
FAYETTEVILLE   CLOUDY    48  47  96 SW3       30.03F
FT SMITH       CLOUDY    50  48  93 E5        30.04F
LITTLE ROCK    CLOUDY    46  45  96 NW3       30.08F

......OKLAHOMA.......

CITY           SKY/WX    TMP DP  RH WIND       PRES   REMARKS
TULSA          CLOUDY    47  43  86 SW6       30.04S
PONCA CITY     CLOUDY    48  40  73 S5        30.00F
MCALESTER      CLOUDY    48  44  86 VRB3      30.03F
OKLAHOMA CITY  DRIZZLE   45  43  93 S6        30.01F

......IOWA............

CITY           SKY/WX    TMP DP  RH WIND       PRES   REMARKS
DES MOINES     PTSUNNY   38  33  82 CALM      29.95F
QUAD CITIES    PTSUNNY   44  31  60 W5        29.96F

......ILLINOIS........

CITY           SKY/WX    TMP DP  RH WIND       PRES   REMARKS
QUINCY         CLOUDY    48  41  76 S8        29.97F
CHICAGO        CLOUDY    40  34  79 CALM      29.97F HAZE




USA.gov is the U.S. government's official web portal to all federal, state and local government web resources and services.